STARLINK-1017

Last updated on Dec. 12, 2019, 12:02 a.m. UTC

1 44723U 19074L   19345.58335648  .00074905  00000-0  53366-3 0  9996
2 44723  53.0086  21.5126 0001740 336.2553  76.2889 15.73181607  4733

Satellite is not in orbit.